TimeCDT,TemperatureF,Dew PointF,Humidity,Sea Level PressureIn,VisibilityMPH,Wind Direction,Wind SpeedMPH,Gust SpeedMPH,PrecipitationIn,Events,Conditions,WindDirDegrees,DateUTC
12:15 AM,42.8,28.8,58,30.16,10.0,WNW,4.6,-,N/A,,Overcast,290,2012-10-07 05:15:00
12:35 AM,42.4,28.9,59,30.16,10.0,WNW,4.6,-,N/A,,Overcast,290,2012-10-07 05:35:00
12:55 AM,42.4,28.9,59,30.16,10.0,WNW,3.5,-,N/A,,Overcast,290,2012-10-07 05:55:00
1:15 AM,41.9,29.3,61,30.16,10.0,WNW,4.6,-,N/A,,Overcast,290,2012-10-07 06:15:00
1:35 AM,41.4,29.5,63,30.16,10.0,WNW,4.6,-,N/A,,Overcast,290,2012-10-07 06:35:00
1:55 AM,41.0,30.2,65,30.16,10.0,WNW,3.5,-,N/A,,Mostly Cloudy,290,2012-10-07 06:55:00
2:15 AM,40.6,29.7,65,30.16,10.0,West,4.6,-,N/A,,Overcast,280,2012-10-07 07:15:00
2:35 AM,41.0,29.8,64,30.15,10.0,West,5.8,-,N/A,,Overcast,280,2012-10-07 07:35:00
2:55 AM,41.0,29.8,64,30.15,10.0,WNW,4.6,-,N/A,,Overcast,290,2012-10-07 07:55:00
3:15 AM,41.0,29.8,64,30.15,10.0,West,4.6,-,N/A,,Overcast,280,2012-10-07 08:15:00
3:35 AM,41.2,29.8,64,30.15,10.0,West,5.8,-,N/A,,Overcast,280,2012-10-07 08:35:00
3:55 AM,41.0,29.8,64,30.15,10.0,West,4.6,-,N/A,,Overcast,280,2012-10-07 08:55:00
4:15 AM,40.6,29.3,64,30.15,10.0,West,5.8,-,N/A,,Overcast,280,2012-10-07 09:15:00
4:35 AM,40.1,29.7,66,30.14,10.0,WNW,3.5,-,N/A,,Overcast,290,2012-10-07 09:35:00
4:55 AM,39.4,29.5,68,30.14,10.0,WNW,4.6,-,N/A,,Scattered Clouds,290,2012-10-07 09:55:00
5:15 AM,39.2,29.3,68,30.14,10.0,West,4.6,-,N/A,,Scattered Clouds,280,2012-10-07 10:15:00
5:35 AM,39.2,29.3,68,30.14,10.0,WNW,4.6,-,N/A,,Scattered Clouds,290,2012-10-07 10:35:00
5:55 AM,38.3,29.3,70,30.14,10.0,West,4.6,-,N/A,,Clear,280,2012-10-07 10:55:00
6:15 AM,38.1,29.3,71,30.14,10.0,West,5.8,-,N/A,,Clear,280,2012-10-07 11:15:00
6:35 AM,37.8,29.3,72,30.14,10.0,West,6.9,-,N/A,,Clear,280,2012-10-07 11:35:00
6:55 AM,37.4,29.3,73,30.15,10.0,WNW,4.6,-,N/A,,Clear,290,2012-10-07 11:55:00
7:15 AM,37.4,29.1,72,30.15,10.0,West,5.8,-,N/A,,Clear,280,2012-10-07 12:15:00
7:35 AM,37.4,29.7,74,30.15,10.0,WNW,5.8,-,N/A,,Clear,290,2012-10-07 12:35:00
7:55 AM,38.3,29.5,71,30.16,10.0,West,6.9,-,N/A,,Clear,280,2012-10-07 12:55:00
8:15 AM,39.2,30.0,70,30.16,10.0,WNW,6.9,-,N/A,,Clear,290,2012-10-07 13:15:00
8:35 AM,39.4,29.7,68,30.16,10.0,WNW,6.9,-,N/A,,Clear,290,2012-10-07 13:35:00
8:55 AM,39.4,29.5,68,30.17,10.0,WNW,9.2,-,N/A,,Clear,290,2012-10-07 13:55:00
9:15 AM,41.2,29.8,64,30.17,10.0,WNW,8.1,-,N/A,,Scattered Clouds,290,2012-10-07 14:15:00
9:35 AM,43.9,29.7,57,30.17,10.0,NW,9.2,-,N/A,,Clear,320,2012-10-07 14:35:00
9:55 AM,45.5,29.1,53,30.17,10.0,WNW,8.1,-,N/A,,Clear,290,2012-10-07 14:55:00
10:15 AM,46.9,27.7,47,30.18,10.0,WNW,6.9,-,N/A,,Clear,300,2012-10-07 15:15:00
10:35 AM,48.2,26.6,43,30.18,10.0,West,8.1,-,N/A,,Scattered Clouds,280,2012-10-07 15:35:00
10:55 AM,47.1,26.2,44,30.17,10.0,WNW,8.1,-,N/A,,Mostly Cloudy,300,2012-10-07 15:55:00
11:15 AM,48.2,25.0,40,30.18,10.0,WNW,8.1,-,N/A,,Scattered Clouds,290,2012-10-07 16:15:00
11:35 AM,48.6,24.8,39,30.18,10.0,WNW,12.7,-,N/A,,Scattered Clouds,300,2012-10-07 16:35:00
11:55 AM,48.0,23.5,38,30.18,10.0,WNW,8.1,-,N/A,,Scattered Clouds,300,2012-10-07 16:55:00
12:15 PM,47.5,23.5,39,30.18,10.0,WNW,5.8,-,N/A,,Overcast,300,2012-10-07 17:15:00
12:35 PM,47.7,23.2,38,30.18,10.0,WNW,5.8,-,N/A,,Overcast,300,2012-10-07 17:35:00
12:55 PM,49.3,24.1,37,30.17,10.0,West,10.4,16.1,N/A,,Overcast,280,2012-10-07 17:55:00
1:15 PM,48.0,25.0,41,30.16,10.0,West,10.4,-,N/A,,Overcast,270,2012-10-07 18:15:00
1:35 PM,47.7,24.8,41,30.16,10.0,WNW,9.2,-,N/A,,Overcast,300,2012-10-07 18:35:00
1:55 PM,48.0,23.5,38,30.16,10.0,WNW,11.5,-,N/A,,Overcast,290,2012-10-07 18:55:00
2:15 PM,47.8,22.5,37,30.16,10.0,WNW,6.9,-,N/A,,Overcast,300,2012-10-07 19:15:00
2:35 PM,48.2,22.3,36,30.16,10.0,West,8.1,-,N/A,,Overcast,280,2012-10-07 19:35:00
2:55 PM,49.5,22.5,35,30.15,10.0,SW,10.4,16.1,N/A,,Mostly Cloudy,230,2012-10-07 19:55:00
3:15 PM,48.4,21.2,34,30.15,10.0,West,9.2,-,N/A,,Mostly Cloudy,270,2012-10-07 20:15:00
3:35 PM,49.1,21.0,33,30.14,10.0,Calm,Calm,-,N/A,,Mostly Cloudy,0,2012-10-07 20:35:00
3:55 PM,48.6,20.5,33,30.14,10.0,NW,9.2,-,N/A,,Mostly Cloudy,310,2012-10-07 20:55:00
4:15 PM,49.6,20.1,31,30.13,10.0,NW,9.2,-,N/A,,Scattered Clouds,320,2012-10-07 21:15:00
4:35 PM,49.1,19.9,32,30.14,10.0,West,8.1,-,N/A,,Clear,280,2012-10-07 21:35:00
4:55 PM,48.4,19.0,31,30.13,10.0,West,12.7,-,N/A,,Clear,270,2012-10-07 21:55:00
5:15 PM,47.8,19.0,32,30.14,10.0,West,8.1,-,N/A,,Clear,260,2012-10-07 22:15:00
5:35 PM,47.5,19.8,33,30.14,10.0,West,8.1,-,N/A,,Clear,260,2012-10-07 22:35:00
5:55 PM,46.6,19.9,35,30.14,10.0,West,8.1,18.4,N/A,,Clear,270,2012-10-07 22:55:00
6:15 PM,44.8,21.0,39,30.14,10.0,West,4.6,-,N/A,,Clear,260,2012-10-07 23:15:00
6:35 PM,43.7,20.5,40,30.13,10.0,WSW,3.5,-,N/A,,Clear,240,2012-10-07 23:35:00
6:55 PM,39.2,23.0,52,30.14,10.0,SW,4.6,-,N/A,,Clear,220,2012-10-07 23:55:00
7:15 PM,36.7,23.2,58,30.15,10.0,SSW,4.6,-,N/A,,Clear,200,2012-10-08 00:15:00
7:35 PM,35.4,25.0,66,30.15,10.0,South,5.8,-,N/A,,Clear,190,2012-10-08 00:35:00
7:55 PM,33.8,25.0,70,30.16,10.0,SSW,4.6,-,N/A,,Clear,210,2012-10-08 00:55:00
8:15 PM,32.9,24.6,72,30.16,10.0,SSW,4.6,-,N/A,,Clear,200,2012-10-08 01:15:00
8:35 PM,34.0,25.0,70,30.16,10.0,SSW,4.6,-,N/A,,Clear,200,2012-10-08 01:35:00
8:55 PM,33.3,24.6,71,30.16,10.0,SSW,3.5,-,N/A,,Clear,200,2012-10-08 01:55:00
9:15 PM,35.6,24.8,65,30.16,10.0,Calm,Calm,-,N/A,,Clear,0,2012-10-08 02:15:00
9:35 PM,36.3,24.1,61,30.16,10.0,Calm,Calm,-,N/A,,Clear,0,2012-10-08 02:35:00
9:55 PM,35.2,23.9,63,30.16,10.0,Calm,Calm,-,N/A,,Clear,0,2012-10-08 02:55:00
10:15 PM,34.9,23.9,64,30.16,10.0,Calm,Calm,-,N/A,,Clear,0,2012-10-08 03:15:00
10:35 PM,32.5,23.7,70,30.16,10.0,Calm,Calm,-,N/A,,Clear,0,2012-10-08 03:35:00
10:55 PM,32.9,24.4,71,30.16,10.0,Calm,Calm,-,N/A,,Clear,0,2012-10-08 03:55:00
11:15 PM,32.7,24.4,72,30.17,10.0,Calm,Calm,-,N/A,,Clear,0,2012-10-08 04:15:00
11:35 PM,30.7,23.5,75,30.16,10.0,Calm,Calm,-,N/A,,Clear,0,2012-10-08 04:35:00
11:55 PM,32.0,24.6,74,30.16,10.0,Calm,Calm,-,N/A,,Clear,0,2012-10-08 04:55:00